Regional Weather Roundup
Issued by NWS Raleigh/Durham, NC

Home | Current Version | Previous Version | Text Only | Print | Product List | Glossary On
Versions: 1 2 3 4 5 6 7 8 9 10 11 12 13 14 15 16 17 18 19 20 21 22 23 24 25 26 27 28 29 30 31 32 33 34 35 36 37 38 39 40 41 42 43 44 45 46 47 48 49 50
000
ASUS42 KRAH 271610
RWRRAH
NORTH CAROLINA WEATHER ROUNDUP
NATIONAL WEATHER SERVICE RALEIGH NC
1200 PM EDT THU APR 27 2017

NOTE: "FAIR" INDICATES FEW OR NO CLOUDS BELOW 12,000 FEET WITH NO
SIGNIFICANT WEATHER AND/OR OBSTRUCTIONS TO VISIBILITY.

NCZ001-053-055-056-065-067-271700-
WESTERN NORTH CAROLINA

CITY           SKY/WX    TMP DP  RH WIND       PRES   REMARKS
ASHEVILLE      LGT RAIN  61  54  77 S9        29.90R
JEFFERSON      CLOUDY    67  53  59 S10G20    29.89S
HICKORY        NOT AVBL
RUTHERFORDTON  NOT AVBL
MOUNT AIRY     NOT AVBL
BOONE          NOT AVBL
$$

NCZ021-022-025-041-071-084-088-271700-
CENTRAL NORTH CAROLINA

CITY           SKY/WX    TMP DP  RH WIND       PRES   REMARKS
CHARLOTTE      CLOUDY    73  55  53 S17       29.89F
GREENSBORO     CLOUDY    75  59  57 SW14      29.88S
WINSTON-SALEM  MOSUNNY   74  53  48 VRB7G21   29.89R
RALEIGH-DURHAM PTSUNNY   78  61  55 SW14G22   29.90F
FORT BRAGG     SUNNY     79  56  44 S7G17     29.89F
FAYETTEVILLE   SUNNY     81  57  43 S16       29.90F
BURLINGTON     CLOUDY    78  58  49 S8G17     29.87F
LAURINBURG     SUNNY     79  59  50 SW14      29.92F
$$

NCZ011-015-027-028-043-044-047-080-103-271700-
NORTHEASTERN NORTH CAROLINA

CITY           SKY/WX    TMP DP  RH WIND       PRES   REMARKS
ROCKY MT-WILSO SUNNY     77  65  66 S9        29.91F
GREENVILLE     SUNNY     79  63  57 SW12G17   29.95F
WASHINGTON     SUNNY     79  62  55 S12       29.94F
ELIZABETH CITY NOT AVBL
MANTEO         PTSUNNY   74  67  77 S13       29.96S
CAPE HATTERAS  SUNNY     77  65  66 SW6       29.98S HAZE
$$

NCZ078-087-090-091-093-098-101-271700-
SOUTHEASTERN NORTH CAROLINA

CITY           SKY/WX    TMP DP  RH WIND       PRES   REMARKS
LUMBERTON      SUNNY     78  60  53 S8G17     29.90F
GOLDSBORO      SUNNY     79  62  56 SW15      29.90F
KINSTON        MOSUNNY   81  63  54 SW10      29.94F
KENANSVILLE    SUNNY     79  61  53 SW5       29.93F
NEW BERN       MOSUNNY   81  64  56 W8        29.96F
CHERRY POINT   NOT AVBL
BEAUFORT       PTSUNNY   76  68  76 SW12      29.97F
JACKSONVILLE   PTSUNNY   80  63  55 SW9       29.94F
WILMINGTON     SUNNY     81  56  42 SW10      29.94F
$$




USA.gov is the U.S. government's official web portal to all federal, state and local government web resources and services.